Flight Track Log - Related Links

Times and Time Zones

All times are in EDT time to prevent confusion due to time zone crossing. See the CHQ6100 flight status page for this flight to view local times or setup timezone preferences in your user account.

Time Position Orientation Groundspeed Altitude Reporting Facility
EDT Latitude Longitude Course Direction KTS MPH feet Rate Location/Type
Thu 04:00:22 PM 44.8397 -68.8889 241° Southwest 170 196 2,900  Level Boston Center
Thu 04:01:26 PM 44.8139 -68.9628 244° Southwest 209 241 4,800 2,016 Climbing Boston Center
Thu 04:02:00 PM 44.6723 -69.2611 241° Southwest  Level FlightAware Approximate
Thu 04:02:27 PM 44.7803 -69.0492 241° Southwest 240 276 7,100  Level Boston Center
Thu 04:03:00 PM 44.6293 -69.3788 245° Southwest  Level FlightAware Approximate
Thu 04:03:27 PM 44.7447 -69.1394 241° Southwest 255 293 9,600  Level Boston Center
Thu 04:04:00 PM 44.5894 -69.4986 245° Southwest  Level FlightAware Approximate
Thu 04:04:28 PM 44.7011 -69.2511 241° Southwest 264 304 11,800  Level Boston Center
Thu 04:05:00 PM 44.5453 -69.6121 241° Southwest  Level FlightAware Approximate
Thu 04:05:31 PM 44.6608 -69.3556 242° Southwest 287 330 13,300  Level Boston Center
Thu 04:06:32 PM 44.6158 -69.4628 240° Southwest 308 354 14,800 1,475 Climbing Boston Center
Thu 04:07:33 PM 44.5717 -69.5750 241° Southwest 321 369 16,300 1,403 Climbing Boston Center
Thu 04:08:36 PM 44.5267 -69.6892 241° Southwest 327 376 17,700 1,355 Climbing Boston Center
Thu 04:09:37 PM 44.4803 -69.8036 240° Southwest 329 379 19,100 1,438 Climbing Boston Center
Thu 04:10:37 PM 44.4328 -69.9206 240° Southwest 339 390 20,600 1,403 Climbing Boston Center
Thu 04:11:41 PM 44.3847 -70.0367 240° Southwest 340 391 22,000 1,392 Climbing Boston Center
Thu 04:12:42 PM 44.3369 -70.1542 240° Southwest 342 394 23,500 1,438 Climbing Boston Center
Thu 04:13:42 PM 44.2892 -70.2714 240° Southwest 343 395 24,900 1,403 Climbing Boston Center
Thu 04:14:46 PM 44.2419 -70.3869 240° Southwest 342 394 26,400 1,403 Climbing Boston Center
Thu 04:15:46 PM 44.1950 -70.5008 240° Southwest 337 388 27,800 1,438 Climbing Boston Center
Thu 04:16:47 PM 44.1483 -70.6131 240° Southwest 334 384 29,300 1,056 Climbing Boston Center
Thu 04:17:51 PM 44.1028 -70.7219 240° Southwest 327 376 30,000 339 Climbing Boston Center
Thu 04:18:51 PM 44.0444 -70.8611 240° Southwest 342 394 30,000  Level Boston Center
Thu 04:19:52 PM 43.9933 -70.9828 240° Southwest 359 413 30,000  Level Boston Center
Thu 04:20:53 PM 43.9422 -71.1039 240° Southwest 361 415 30,000  Level Boston Center
Thu 04:21:54 PM 43.8917 -71.2244 240° Southwest 361 415 30,000  Level Boston Center
Thu 04:22:58 PM 43.8414 -71.3422 239° Southwest 357 411 30,000  Level Boston Center
Thu 04:23:59 PM 43.7914 -71.4600 240° Southwest 354 407 30,000  Level Boston Center
Thu 04:25:00 PM 43.7383 -71.5817 239° Southwest 351 404 30,000  Level Boston Center
Thu 04:26:01 PM 43.6892 -71.6953 239° Southwest 350 403 30,000  Level Boston Center
Thu 04:27:04 PM 43.6408 -71.8072 239° Southwest 340 391 30,000  Level Boston Center
Thu 04:28:05 PM 43.5917 -71.9219 239° Southwest 345 397 30,000  Level Boston Center
Thu 04:29:06 PM 43.5411 -72.0356 238° Southwest 349 402 30,000  Level Boston Center
Thu 04:30:07 PM 43.4925 -72.1494 240° Southwest 347 399 30,000 -393 Level Boston Center
Thu 04:31:08 PM 43.4336 -72.2853 239° Southwest 347 399 29,200 -1,131 Descending Boston Center
Thu 04:32:09 PM 43.3850 -72.3947 239° Southwest 341 392 27,700 -1,440 Descending Boston Center
Thu 04:33:13 PM 43.3322 -72.5119 238° Southwest 356 410 26,200 -816 Descending Boston Center
Thu 04:34:14 PM 43.2775 -72.6361 239° Southwest 377 434 26,000 -99 Descending Boston Center
Thu 04:35:14 PM 43.2208 -72.7631 239° Southwest 390 449 26,000  Level Boston Center
Thu 04:36:15 PM 43.1619 -72.8925 238° Southwest 397 457 26,000  Level Boston Center
Thu 04:37:16 PM 43.1036 -73.0228 239° Southwest 400 460 26,000  Level Boston Center
Thu 04:38:17 PM 43.0436 -73.1558 238° Southwest 408 470 26,000 -480 Level Boston Center
Thu 04:39:21 PM 42.9744 -73.3097 238° Southwest 406 467 25,000 -1,113 Descending Boston Center
Thu 04:40:21 PM 42.9231 -73.4206 238° Southwest 394 453 23,700 -1,450 Descending Boston Center
Thu 04:41:21 PM 42.8639 -73.5517 238° Southwest 377 434 22,100 -823 Descending Boston Center
Thu 04:42:25 PM 42.8119 -73.6647 238° Southwest 361 415 22,000 -48 Descending Boston Center
Thu 04:43:25 PM 42.7489 -73.7675 230° Southwest 370 426 22,000  Level Boston Center
Thu 04:44:26 PM 42.6353 -73.7781 184° South 437 503 22,000 -384 Level Boston Center
Thu 04:45:30 PM 42.4950 -73.7511 172° South 432 497 21,200 -1,113 Descending Boston Center
Thu 04:46:30 PM 42.3772 -73.7261 171° South 432 497 19,700 -1,488 Descending Boston Center
Thu 04:47:31 PM 42.2586 -73.7017 171° South 433 498 18,200 -836 Descending Boston Center
Thu 04:48:32 PM 42.1514 -73.6878 175° South 386 444 18,000 -98 Descending Boston Center
Thu 04:49:33 PM 42.0389 -73.7042 186° South 375 432 18,000  Level Boston Center
Thu 04:50:36 PM 41.9197 -73.7194 185° South 399 459 18,000 -780 Level Boston Center
Thu 04:51:36 PM 41.8111 -73.7347 186° South 392 451 16,400 -1,835 Descending Boston Center
Thu 04:52:37 PM 41.7108 -73.7481 186° South 363 418 14,300 -2,081 Descending Boston Center
Thu 04:53:40 PM 41.6150 -73.7614 186° South 349 402 12,100 -1,824 Descending Boston Center
Thu 04:54:42 PM 41.5189 -73.7483 174° South 321 369 10,500 -1,512 Descending Boston Center
Thu 04:55:43 PM 41.4358 -73.7169 164° South 312 359 9,000 -1,475 Descending Boston Center
Thu 04:56:44 PM 41.3567 -73.6864 164° South 300 345 7,500 -1,548 Descending Boston Center
Thu 04:57:16 PM 41.3167 -73.6667 160° South 289 333 6,600 -1,500 Descending New York TRACON
Thu 04:58:16 PM 41.2333 -73.6333 163° South 272 313 5,200 -1,300 Descending New York TRACON
Thu 04:59:16 PM 41.1667 -73.6167 169° South 255 293 4,000 -600 Descending New York TRACON
Thu 05:00:16 PM 41.1000 -73.6167 180° South 256 295 4,000  Level New York TRACON
Thu 05:01:16 PM 41.0500 -73.6500 207° Southwest 238 274 4,000 -150 Level New York TRACON
Thu 05:02:16 PM 41.0000 -73.7000 217° Southwest 197 227 3,700 -500 Descending New York TRACON
Thu 05:03:16 PM 40.9500 -73.7333 207° Southwest 203 234 3,000 -552 Descending New York TRACON
Thu 05:05:10 PM 40.8667 -73.8000 211° Southwest 171 197 2,100 -600 Descending New York TRACON
Thu 05:06:16 PM 40.8333 -73.8333 217° Southwest 137 158 1,200 -810 Descending New York TRACON
Thu 05:07:16 PM 40.8000 -73.8667 217° Southwest 142 163 400 -800 Descending New York TRACON

Login

Don't have an account? Register now (free) for customized features, flight alerts, and more!